FW4339 Weather Reports


Display with metric or nautical units.
time (UTC)temp
F
wind
direction
speed
MPH
gust
MPH
rain 1hr
in
rain 24hr
in
rain mn
in
humidity
%
barometer
mb
20260831010018 76 0.0 0.0 0.00 0.00 0.00 54 1014.0
20260831004517 76 0.0 0.0 0.00 0.00 0.00 54 1014.0
20260831003016 77 0.0 0.0 0.00 0.00 0.00 54 1014.0
20260831001517 77 0.0 0.0 0.00 0.00 0.00 54 1014.0
20260831000017 77 0.0 0.0 0.00 0.00 0.00 52 1014.0
20260830234516 78 0.0 0.0 0.00 0.00 0.00 55 1014.1
20260830233015 78 0.0 0.0 0.00 0.00 0.00 54 1014.2
20260830231517 78 0.0 0.0 0.00 0.00 0.00 51 1014.2
20260830230015 78 0.0 0.0 0.00 0.00 0.00 49 1014.1
20260830224515 78 0.0 0.0 0.00 0.00 0.00 51 1014.2
20260830223025 79 0.0 0.0 0.00 0.00 0.00 51 1014.3
20260830221522 79 0.0 0.0 0.00 0.00 0.00 51 1014.4
20260830220024 79 0.0 0.0 0.00 0.00 0.00 52 1014.4
20260830214520 80 0.0 0.0 0.00 0.00 0.00 52 1014.3
20260830213015 80 0.0 0.0 0.00 0.00 0.00 52 1014.2
20260830210010 79 0.0 0.0 0.00 0.00 0.00 52 1014.2
20260830204509 79 0.0 0.0 0.00 0.00 0.00 50 1014.2
20260830203013 79 0.0 0.0 0.00 0.00 0.00 49 1014.2
20260830201512 79 0.0 0.0 0.00 0.00 0.00 49 1014.1
20260830200013 79 0.0 0.0 0.00 0.00 0.00 49 1014.0
20260830194511 79 0.0 0.0 0.00 0.00 0.00 48 1014.0
20260830193010 78 0.0 0.0 0.00 0.00 0.00 49 1013.9
20260830191508 79 0.0 0.0 0.00 0.00 0.00 47 1013.9
20260830190009 79 0.0 0.0 0.00 0.00 0.00 47 1013.9
20260830184508 79 0.0 0.0 0.00 0.00 0.00 47 1013.7
20260830183007 79 0.0 0.0 0.00 0.00 0.00 48 1013.7
20260830181507 79 0.0 0.0 0.00 0.00 0.00 47 1013.6
20260830180006 79 0.0 0.0 0.00 0.00 0.00 47 1013.6
20260830174511 80 0.0 0.0 0.00 0.00 0.00 48 1013.4
20260830173006 81 0.0 0.0 0.00 0.00 0.00 49 1013.3
20260830171514 82 0.0 0.0 0.00 0.00 0.00 47 1013.2
20260830170005 83 0.0 0.0 0.00 0.00 0.00 45 1013.1
20260830164505 84 0.0 0.0 0.00 0.00 0.00 42 1013.1
20260830163030 84 0.0 0.0 0.00 0.00 0.00 41 1013.2
20260830161506 85 0.0 0.0 0.00 0.00 0.00 40 1013.1
20260830160019 86 0.0 0.0 0.00 0.00 0.00 40 1013.2
20260830154507 86 0.0 0.0 0.00 0.00 0.00 41 1013.2
20260830153005 87 0.0 0.0 0.00 0.00 0.00 40 1013.1
20260830151508 88 0.0 0.0 0.00 0.00 0.00 38 1013.0
20260830150012 89 0.0 0.0 0.00 0.00 0.00 35 1013.1
20260830144504 90 0.0 0.0 0.00 0.00 0.00 34 1012.9
20260830143011 91 0.0 0.0 0.00 0.00 0.00 32 1013.0
20260830141503 92 0.0 0.0 0.00 0.00 0.00 32 1012.9
20260830140004 93 0.0 0.0 0.00 0.00 0.00 31 1013.0
20260830134506 94 0.0 0.0 0.00 0.00 0.00 31 1013.0
20260830133005 94 0.0 0.0 0.00 0.00 0.00 31 1013.1
20260830131505 94 0.0 0.0 0.00 0.00 0.00 30 1013.1
20260830130005 95 0.0 0.0 0.00 0.00 0.00 31 1013.3
20260830124505 93 0.0 0.0 0.00 0.00 0.00 33 1013.5
20260830123100 92 0.0 0.0 0.00 0.00 0.00 39 1013.6
20260830121605 91 0.0 0.0 0.00 0.00 0.00 34 1013.8
20260830120059 90 0.0 0.0 0.00 0.00 0.00 33 1013.9
20260830114611 90 0.0 0.0 0.00 0.00 0.00 32 1013.9
20260830113001 92 0.0 0.0 0.00 0.00 0.00 31 1013.9
20260830111559 92 0.0 0.0 0.00 0.00 0.00 32 1013.8
20260830110055 89 0.0 0.0 0.00 0.00 0.00 38 1013.9
20260830104552 89 0.0 0.0 0.00 0.00 0.00 39 1013.9
20260830103049 88 0.0 0.0 0.00 0.00 0.00 41 1014.0
20260830101545 87 0.0 0.0 0.00 0.00 0.00 43 1014.1
20260830100043 87 0.0 0.0 0.00 0.00 0.00 43 1014.1
20260830094546 87 0.0 0.0 0.00 0.00 0.00 47 1014.2
20260830093040 87 0.0 0.0 0.00 0.00 0.00 45 1014.4
20260830091538 88 0.0 0.0 0.00 0.00 0.00 43 1014.4
20260830090052 88 0.0 0.0 0.00 0.00 0.00 42 1014.5
20260830084536 87 0.0 0.0 0.00 0.00 0.00 44 1014.6
20260830083036 87 0.0 0.0 0.00 0.00 0.00 42 1014.5
20260830081529 90 0.0 0.0 0.00 0.00 0.00 39 1014.6
20260830080026 88 0.0 0.0 0.00 0.00 0.00 38 1014.7
20260830074521 87 0.0 0.0 0.00 0.00 0.00 43 1014.7
20260830073016 87 0.0 0.0 0.00 0.00 0.00 44 1014.7
20260830071510 85 0.0 0.0 0.00 0.00 0.00 43 1014.5
20260830070005 85 0.0 0.0 0.00 0.00 0.00 46 1014.4
20260830064504 84 0.0 0.0 0.00 0.00 0.00 45 1014.4
20260830063112 83 0.0 0.0 0.00 0.00 0.00 46 1014.2
20260830061601 81 0.0 0.0 0.00 0.00 0.00 49 1014.2
20260830060051 80 0.0 0.0 0.00 0.00 0.00 50 1014.2
20260830054557 79 0.0 0.0 0.00 0.00 0.00 51 1014.3
20260830053042 78 0.0 0.0 0.00 0.00 0.00 52 1014.2
20260830051539 77 0.0 0.0 0.00 0.00 0.00 52 1014.1
20260830050035 77 0.0 0.0 0.00 0.00 0.00 54 1014.2
20260830044531 76 0.0 0.0 0.00 0.00 0.00 53 1014.0
20260830043032 76 0.0 0.0 0.00 0.00 0.00 53 1013.9
20260830041527 76 0.0 0.0 0.00 0.00 0.00 53 1013.9
20260830040028 76 0.0 0.0 0.00 0.00 0.00 50 1013.8
20260830034523 75 0.0 0.0 0.00 0.00 0.00 49 1013.6
20260830033025 76 0.0 0.0 0.00 0.00 0.00 48 1013.5
20260830031523 76 0.0 0.0 0.00 0.00 0.00 48 1013.5
20260830030023 76 0.0 0.0 0.00 0.00 0.00 48 1013.5
20260830024521 76 0.0 0.0 0.00 0.00 0.00 48 1013.6
20260830023018 76 0.0 0.0 0.00 0.00 0.00 47 1013.6
20260830021516 76 0.0 0.0 0.00 0.00 0.00 47 1013.5
20260830020015 77 0.0 0.0 0.00 0.00 0.00 47 1013.4
20260830014513 77 0.0 0.0 0.00 0.00 0.00 46 1013.1
20260830013012 77 0.0 0.0 0.00 0.00 0.00 45 1013.4
20260830011524 77 0.0 0.0 0.00 0.00 0.00 44 1013.9